• In Schweiz
  • Länderverzeichnis
  • Für 7 Tage
  • Wassertemperatur
  • Satellitenkarten
  • Wetterkarte
  • Widgets
  • user-avatar
    Anmelden

    Stündliche Wetter Balcho

    Heute, 18 Oktober, Mittwoch

    Zeit Temperatur Niederschläge Wind Luftdruck Luftfeuchtigkeit
    00:00 +35°C° 0,1 mm 3 m/S 735 mmHg 51%
    01:00 +34°C° 0 mm 3 m/S 735 mmHg 53%
    02:00 +34°C° 0 mm 3 m/S 734 mmHg 54%
    03:00 +34°C° 0 mm 2 m/S 734 mmHg 55%
    04:00 +32°C° 0 mm 2 m/S 735 mmHg 56%
    05:00 +32°C° 0 mm 2 m/S 735 mmHg 58%
    06:00 +32°C° 0 mm 2 m/S 735 mmHg 59%
    07:00 +32°C° 0 mm 2 m/S 736 mmHg 55%
    08:00 +34°C° 0 mm 2 m/S 736 mmHg 52%
    09:00 +35°C° 0 mm 2 m/S 736 mmHg 48%
    10:00 +36°C° 0 mm 2 m/S 736 mmHg 43%
    11:00 +37°C° 0 mm 2 m/S 736 mmHg 38%
    12:00 +38°C° 0 mm 2 m/S 735 mmHg 33%
    13:00 +39°C° 0 mm 2 m/S 735 mmHg 32%
    14:00 +39°C° 0 mm 2 m/S 734 mmHg 30%
    15:00 +40°C° 0 mm 2 m/S 733 mmHg 28%
    16:00 +39°C° 0,1 mm 3 m/S 733 mmHg 31%
    17:00 +40°C° 0,1 mm 4 m/S 733 mmHg 34%
    18:00 +39°C° 0,1 mm 5 m/S 734 mmHg 37%
    19:00 +39°C° 0 mm 5 m/S 734 mmHg 41%
    20:00 +37°C° 0 mm 5 m/S 734 mmHg 45%
    21:00 +36°C° 0 mm 5 m/S 735 mmHg 49%
    22:00 +35°C° 0,7 mm 4 m/S 735 mmHg 51%
    23:00 +35°C° 0,7 mm 4 m/S 735 mmHg 52%

    Morgen, 19 Oktober, Donnerstag

    Zeit Temperatur Niederschläge Wind Luftdruck Luftfeuchtigkeit
    00:00 +34°C° 0,7 mm 4 m/S 735 mmHg 54%
    01:00 +34°C° 0,8 mm 3 m/S 735 mmHg 54%
    02:00 +33°C° 0,8 mm 3 m/S 734 mmHg 55%
    03:00 +32°C° 0,8 mm 2 m/S 734 mmHg 55%
    04:00 +32°C° 0 mm 2 m/S 735 mmHg 56%
    05:00 +32°C° 0 mm 2 m/S 735 mmHg 56%
    06:00 +32°C° 0 mm 2 m/S 736 mmHg 56%
    07:00 +32°C° 0 mm 2 m/S 736 mmHg 52%
    08:00 +34°C° 0 mm 2 m/S 737 mmHg 48%
    09:00 +35°C° 0 mm 2 m/S 737 mmHg 45%
    10:00 +36°C° 0 mm 2 m/S 737 mmHg 40%
    11:00 +36°C° 0 mm 1 m/S 736 mmHg 35%
    12:00 +37°C° 0 mm 1 m/S 736 mmHg 31%
    13:00 +39°C° 0 mm 2 m/S 735 mmHg 29%
    14:00 +39°C° 0 mm 2 m/S 735 mmHg 26%
    15:00 +40°C° 0 mm 2 m/S 734 mmHg 24%
    16:00 +40°C° 0 mm 3 m/S 734 mmHg 26%
    17:00 +40°C° 0 mm 4 m/S 734 mmHg 28%
    18:00 +40°C° 0 mm 4 m/S 734 mmHg 30%
    19:00 +38°C° 0 mm 4 m/S 735 mmHg 32%
    20:00 +37°C° 0 mm 4 m/S 735 mmHg 35%
    21:00 +37°C° 0 mm 4 m/S 736 mmHg 38%
    22:00 +36°C° 0 mm 4 m/S 736 mmHg 39%
    23:00 +35°C° 0 mm 4 m/S 736 mmHg 40%

    übermorgen, 20 Oktober, Freitag

    Zeit Temperatur Niederschläge Wind Luftdruck Luftfeuchtigkeit
    00:00 +35°C° 0 mm 4 m/S 736 mmHg 41%
    01:00 +34°C° 0 mm 3 m/S 735 mmHg 43%
    02:00 +34°C° 0 mm 3 m/S 735 mmHg 44%
    03:00 +34°C° 0 mm 2 m/S 735 mmHg 45%
    04:00 +32°C° 0 mm 2 m/S 735 mmHg 47%
    05:00 +32°C° 0 mm 2 m/S 735 mmHg 49%
    06:00 +31°C° 0 mm 1 m/S 736 mmHg 51%
    07:00 +32°C° 0 mm 1 m/S 736 mmHg 47%
    08:00 +33°C° 0 mm 1 m/S 737 mmHg 43%
    09:00 +34°C° 0 mm 1 m/S 737 mmHg 40%
    10:00 +35°C° 0 mm 1 m/S 737 mmHg 35%
    11:00 +36°C° 0 mm 1 m/S 737 mmHg 30%
    12:00 +37°C° 0 mm 1 m/S 736 mmHg 26%
    13:00 +39°C° 0 mm 2 m/S 736 mmHg 24%
    14:00 +40°C° 0 mm 2 m/S 735 mmHg 23%
    15:00 +40°C° 0 mm 2 m/S 734 mmHg 21%
    16:00 +40°C° 0 mm 3 m/S 734 mmHg 22%
    17:00 +41°C° 0 mm 4 m/S 735 mmHg 23%
    18:00 +40°C° 0 mm 4 m/S 735 mmHg 24%
    19:00 +38°C° 0 mm 4 m/S 735 mmHg 26%
    20:00 +39°C° 0 mm 5 m/S 736 mmHg 28%
    21:00 +37°C° 0 mm 5 m/S 736 mmHg 29%
    22:00 +36°C° 0 mm 4 m/S 736 mmHg 31%
    23:00 +35°C° 0 mm 4 m/S 736 mmHg 33%

    21 Oktober, Samstag

    Zeit Temperatur Niederschläge Wind Luftdruck Luftfeuchtigkeit
    00:00 +35°C° 0 mm 4 m/S 736 mmHg 34%
    01:00 +34°C° 0 mm 3 m/S 735 mmHg 36%
    02:00 +34°C° 0 mm 3 m/S 735 mmHg 38%
    03:00 +32°C° 0 mm 2 m/S 735 mmHg 40%
    04:00 +32°C° 0 mm 2 m/S 735 mmHg 41%
    05:00 +32°C° 0 mm 2 m/S 736 mmHg 43%
    06:00 +31°C° 0 mm 2 m/S 736 mmHg 45%
    07:00 +32°C° 0 mm 2 m/S 736 mmHg 40%
    08:00 +34°C° 0 mm 2 m/S 737 mmHg 36%
    09:00 +35°C° 0 mm 2 m/S 738 mmHg 32%
    10:00 +36°C° 0 mm 2 m/S 737 mmHg 28%
    11:00 +37°C° 0 mm 1 m/S 736 mmHg 25%
    12:00 +39°C° 0 mm 1 m/S 736 mmHg 22%
    13:00 +39°C° 0 mm 1 m/S 735 mmHg 21%
    14:00 +40°C° 0 mm 2 m/S 735 mmHg 20%
    15:00 +40°C° 0 mm 2 m/S 734 mmHg 20%
    16:00 +40°C° 0 mm 3 m/S 734 mmHg 21%
    17:00 +40°C° 0 mm 3 m/S 734 mmHg 22%
    18:00 +40°C° 0 mm 4 m/S 735 mmHg 23%
    19:00 +38°C° 0 mm 4 m/S 735 mmHg 24%
    20:00 +38°C° 0 mm 4 m/S 735 mmHg 26%
    21:00 +37°C° 0 mm 4 m/S 736 mmHg 27%
    22:00 +36°C° 0 mm 4 m/S 736 mmHg 28%
    23:00 +36°C° 0 mm 4 m/S 736 mmHg 29%

    22 Oktober, Sonntag

    Zeit Temperatur Niederschläge Wind Luftdruck Luftfeuchtigkeit
    00:00 +35°C° 0 mm 3 m/S 735 mmHg 30%
    01:00 +35°C° 0 mm 3 m/S 735 mmHg 32%
    02:00 +34°C° 0 mm 2 m/S 735 mmHg 34%
    03:00 +34°C° 0 mm 2 m/S 735 mmHg 35%
    04:00 +32°C° 0 mm 2 m/S 735 mmHg 37%
    05:00 +32°C° 0 mm 2 m/S 735 mmHg 39%
    06:00 +32°C° 0 mm 2 m/S 736 mmHg 41%
    07:00 +34°C° 0 mm 2 m/S 736 mmHg 37%
    08:00 +35°C° 0 mm 2 m/S 737 mmHg 33%
    09:00 +36°C° 0 mm 2 m/S 737 mmHg 30%
    10:00 +37°C° 0 mm 2 m/S 737 mmHg 27%
    11:00 +38°C° 0 mm 2 m/S 736 mmHg 24%
    12:00 +39°C° 0 mm 1 m/S 735 mmHg 21%
    13:00 +39°C° 0 mm 2 m/S 735 mmHg 21%
    14:00 +40°C° 0 mm 2 m/S 734 mmHg 20%
    15:00 +40°C° 0 mm 2 m/S 733 mmHg 20%
    16:00 +40°C° 0 mm 2 m/S 734 mmHg 21%
    17:00 +40°C° 0 mm 3 m/S 734 mmHg 22%
    18:00 +40°C° 0 mm 4 m/S 734 mmHg 23%
    19:00 +40°C° 0 mm 4 m/S 734 mmHg 25%
    20:00 +38°C° 0 mm 4 m/S 735 mmHg 26%
    21:00 +37°C° 0 mm 4 m/S 735 mmHg 28%
    22:00 +37°C° 0 mm 4 m/S 735 mmHg 29%
    23:00 +36°C° 0 mm 4 m/S 735 mmHg 30%

    23 Oktober, Montag

    Zeit Temperatur Niederschläge Wind Luftdruck Luftfeuchtigkeit
    00:00 +35°C° 0 mm 3 m/S 734 mmHg 31%
    01:00 +35°C° 0 mm 3 m/S 734 mmHg 34%
    02:00 +34°C° 0 mm 3 m/S 734 mmHg 36%
    03:00 +34°C° 0 mm 2 m/S 734 mmHg 38%
    04:00 +32°C° 0 mm 2 m/S 734 mmHg 41%
    05:00 +32°C° 0 mm 2 m/S 735 mmHg 44%
    06:00 +31°C° 0 mm 2 m/S 735 mmHg 47%
    07:00 +32°C° 0 mm 2 m/S 736 mmHg 43%
    08:00 +34°C° 0 mm 2 m/S 736 mmHg 39%
    09:00 +35°C° 0 mm 2 m/S 736 mmHg 36%
    10:00 +36°C° 0 mm 2 m/S 736 mmHg 32%
    11:00 +38°C° 0 mm 2 m/S 735 mmHg 28%
    12:00 +39°C° 0 mm 2 m/S 735 mmHg 24%
    13:00 +39°C° 0 mm 3 m/S 734 mmHg 23%
    14:00 +40°C° 0 mm 3 m/S 733 mmHg 22%
    15:00 +40°C° 0 mm 3 m/S 733 mmHg 22%
    16:00 +41°C° 0 mm 4 m/S 733 mmHg 23%
    17:00 +40°C° 0 mm 4 m/S 733 mmHg 24%
    18:00 +40°C° 0 mm 5 m/S 733 mmHg 25%
    19:00 +39°C° 0 mm 5 m/S 734 mmHg 26%
    20:00 +37°C° 0 mm 5 m/S 734 mmHg 27%
    21:00 +36°C° 0 mm 5 m/S 735 mmHg 28%
    22:00 +36°C° 0 mm 5 m/S 735 mmHg 30%
    23:00 +35°C° 0 mm 4 m/S 734 mmHg 32%
    Mehr zeigen